Time,TemperatureF,DewpointF,PressureIn,WindDirection,WindDirectionDegrees,WindSpeedMPH,WindSpeedGustMPH,Humidity,HourlyPrecipIn,Conditions,Clouds,dailyrainin,SoftwareType,DateUTC
2013-03-05 00:01:00,27.0,27.0,-100.00,ENE,75,6.0,8.0,99,0.00,,,-99.99,,2013-03-05 06:01:00,
2013-03-05 00:11:00,27.0,27.0,-100.00,ENE,75,6.0,8.0,99,0.00,,,-99.99,,2013-03-05 06:11:00,
2013-03-05 00:22:00,27.0,27.0,-100.00,ENE,75,6.0,8.0,99,0.00,,,-99.99,,2013-03-05 06:22:00,
2013-03-05 00:32:00,27.0,27.0,-100.00,ENE,75,9.0,10.0,99,0.00,,,-99.99,,2013-03-05 06:32:00,
2013-03-05 00:42:00,27.0,27.0,-100.00,ENE,70,9.0,12.0,99,0.00,,,-99.99,,2013-03-05 06:42:00,
2013-03-05 00:52:00,27.0,27.0,-100.00,ENE,65,9.0,11.0,99,0.00,,,-99.99,,2013-03-05 06:52:00,
2013-03-05 01:01:00,27.0,27.0,-100.00,ENE,70,8.0,10.0,99,0.03,,,-99.99,,2013-03-05 07:01:00,
2013-03-05 01:11:00,27.0,27.0,-100.00,ENE,65,7.0,11.0,99,0.03,,,-99.99,,2013-03-05 07:11:00,
2013-03-05 01:21:00,27.0,27.0,-100.00,ENE,65,7.0,11.0,99,0.03,,,-99.99,,2013-03-05 07:21:00,
2013-03-05 01:31:00,27.0,27.0,-100.00,ENE,65,7.0,11.0,99,0.03,,,-99.99,,2013-03-05 07:31:00,
2013-03-05 01:41:00,27.0,27.0,-100.00,ENE,65,7.0,11.0,99,0.03,,,-99.99,,2013-03-05 07:41:00,
2013-03-05 01:51:00,26.0,26.0,-100.00,ENE,70,7.0,-999.0,99,0.00,,,-99.99,,2013-03-05 07:51:00,
2013-03-05 02:02:00,26.0,26.0,-100.00,ENE,70,7.0,-999.0,99,0.00,,,-99.99,,2013-03-05 08:02:00,
2013-03-05 02:11:00,27.0,27.0,-100.00,ENE,70,8.0,11.0,99,0.00,,,-99.99,,2013-03-05 08:11:00,
2013-03-05 02:21:00,27.0,27.0,-100.00,ENE,75,7.0,9.0,99,0.00,,,-99.99,,2013-03-05 08:21:00,
2013-03-05 02:31:00,26.0,26.0,-100.00,ENE,70,7.0,8.0,99,0.01,,,-99.99,,2013-03-05 08:31:00,
2013-03-05 02:41:00,27.0,27.0,-100.00,ENE,65,6.0,9.0,99,0.01,,,-99.99,,2013-03-05 08:41:00,
2013-03-05 02:52:00,26.0,26.0,-100.00,ENE,70,6.0,9.0,99,0.06,,,-99.99,,2013-03-05 08:52:00,
2013-03-05 03:01:00,26.0,26.0,-100.00,ENE,70,6.0,9.0,99,0.06,,,-99.99,,2013-03-05 09:01:00,
2013-03-05 03:11:00,27.0,27.0,-100.00,NNW,340,1.0,3.0,99,0.06,,,-99.99,,2013-03-05 09:11:00,
2013-03-05 03:21:00,27.0,27.0,-100.00,NNW,340,1.0,3.0,99,0.06,,,-99.99,,2013-03-05 09:21:00,
2013-03-05 03:31:00,26.0,26.0,-100.00,North,350,1.0,2.0,99,0.01,,,-99.99,,2013-03-05 09:31:00,
2013-03-05 03:42:00,26.0,26.0,-100.00,NW,320,2.0,2.0,99,0.01,,,-99.99,,2013-03-05 09:42:00,
2013-03-05 03:52:00,26.0,26.0,-100.00,NW,325,2.0,3.0,99,0.03,,,-99.99,,2013-03-05 09:52:00,
2013-03-05 04:01:00,26.0,26.0,-100.00,NW,320,3.0,3.0,99,0.07,,,-99.99,,2013-03-05 10:01:00,
2013-03-05 04:11:00,26.0,26.0,-100.00,NW,320,3.0,3.0,99,0.07,,,-99.99,,2013-03-05 10:11:00,
2013-03-05 04:21:00,26.0,26.0,-100.00,NW,320,3.0,3.0,99,0.07,,,-99.99,,2013-03-05 10:21:00,
2013-03-05 04:32:00,26.0,26.0,-100.00,NW,305,4.0,5.0,99,0.03,,,-99.99,,2013-03-05 10:32:00,
2013-03-05 04:42:00,26.0,26.0,-100.00,NW,305,4.0,5.0,99,0.03,,,-99.99,,2013-03-05 10:42:00,
2013-03-05 04:52:00,26.0,26.0,-100.00,NNW,335,4.0,6.0,99,0.10,,,-99.99,,2013-03-05 10:52:00,
2013-03-05 05:01:00,26.0,26.0,-100.00,NW,310,6.0,6.0,99,0.03,,,-99.99,,2013-03-05 11:01:00,
2013-03-05 05:11:00,26.0,26.0,-100.00,NW,305,6.0,6.0,99,0.01,,,-99.99,,2013-03-05 11:11:00,
2013-03-05 05:22:00,26.0,26.0,-100.00,NW,315,6.0,6.0,99,0.04,,,-99.99,,2013-03-05 11:22:00,
2013-03-05 05:32:00,26.0,26.0,-100.00,NW,315,4.0,6.0,99,0.14,,,-99.99,,2013-03-05 11:32:00,
2013-03-05 05:42:00,26.0,26.0,-100.00,NW,315,4.0,6.0,99,0.14,,,-99.99,,2013-03-05 11:42:00,
2013-03-05 05:52:00,26.0,26.0,-100.00,NNW,330,5.0,6.0,99,0.04,,,-99.99,,2013-03-05 11:52:00,
2013-03-05 06:02:00,26.0,26.0,-100.00,NW,305,6.0,7.0,99,0.03,,,-99.99,,2013-03-05 12:02:00,
2013-03-05 06:12:00,26.0,26.0,-100.00,NW,310,6.0,8.0,99,0.03,,,-99.99,,2013-03-05 12:12:00,
2013-03-05 06:22:00,26.0,26.0,-100.00,NW,325,5.0,6.0,99,0.11,,,-99.99,,2013-03-05 12:22:00,
2013-03-05 06:32:00,26.0,26.0,-100.00,NW,320,5.0,7.0,99,0.06,,,-99.99,,2013-03-05 12:32:00,
2013-03-05 06:42:00,26.0,26.0,-100.00,NW,320,6.0,6.0,99,0.01,,,-99.99,,2013-03-05 12:42:00,
2013-03-05 06:52:00,26.0,26.0,-100.00,NW,305,4.0,6.0,99,0.00,,,-99.99,,2013-03-05 12:52:00,
2013-03-05 07:02:00,26.0,26.0,-100.00,NW,305,5.0,6.0,99,0.00,,,-99.99,,2013-03-05 13:02:00,
2013-03-05 07:11:00,26.0,26.0,-100.00,NW,315,6.0,6.0,99,0.00,,,-99.99,,2013-03-05 13:11:00,
2013-03-05 07:21:00,26.0,26.0,-100.00,WNW,295,4.0,6.0,99,0.00,,,-99.99,,2013-03-05 13:21:00,
2013-03-05 07:32:00,26.0,-99.9,-100.00,NW,305,4.0,5.0,-999,0.00,,,-99.99,,2013-03-05 13:32:00,
2013-03-05 07:42:00,26.0,26.0,-100.00,WNW,290,4.0,6.0,99,0.00,,,-99.99,,2013-03-05 13:42:00,
2013-03-05 07:52:00,26.0,26.0,-100.00,WNW,300,4.0,5.0,99,0.06,,,-99.99,,2013-03-05 13:52:00,
2013-03-05 08:02:00,27.0,27.0,-100.00,NW,315,4.0,6.0,99,0.01,,,-99.99,,2013-03-05 14:02:00,
2013-03-05 08:11:00,26.0,26.0,-100.00,WNW,285,6.0,7.0,99,0.03,,,-99.99,,2013-03-05 14:11:00,
2013-03-05 08:21:00,26.0,26.0,-100.00,WNW,290,8.0,10.0,99,0.01,,,-99.99,,2013-03-05 14:21:00,
2013-03-05 08:32:00,26.0,-99.9,-100.00,WNW,290,8.0,9.0,-999,0.00,,,-99.99,,2013-03-05 14:32:00,
2013-03-05 08:42:00,26.0,-99.9,-100.00,WNW,290,8.0,9.0,-999,0.00,,,-99.99,,2013-03-05 14:42:00,
2013-03-05 08:52:00,26.0,26.0,-100.00,WNW,295,11.0,12.0,99,0.00,,,-99.99,,2013-03-05 14:52:00,
2013-03-05 09:01:00,27.0,27.0,-100.00,WNW,295,15.0,17.0,99,0.00,,,-99.99,,2013-03-05 15:01:00,
2013-03-05 09:11:00,27.0,27.0,-100.00,WNW,295,15.0,19.0,99,0.00,,,-99.99,,2013-03-05 15:11:00,
2013-03-05 09:21:00,27.0,27.0,-100.00,WNW,285,20.0,24.0,99,0.00,,,-99.99,,2013-03-05 15:21:00,
2013-03-05 09:32:00,27.0,27.0,-100.00,WNW,300,17.0,22.0,99,0.00,,,-99.99,,2013-03-05 15:32:00,
2013-03-05 09:42:00,27.0,27.0,-100.00,WNW,295,19.0,24.0,99,0.01,,,-99.99,,2013-03-05 15:42:00,
2013-03-05 09:51:00,27.0,27.0,-100.00,WNW,285,14.0,21.0,99,0.01,,,-99.99,,2013-03-05 15:51:00,
2013-03-05 10:01:00,27.0,27.0,-100.00,WNW,285,14.0,22.0,99,0.01,,,-99.99,,2013-03-05 16:01:00,
2013-03-05 10:11:00,27.0,27.0,-100.00,WNW,295,17.0,23.0,99,0.03,,,-99.99,,2013-03-05 16:11:00,
2013-03-05 10:21:00,27.0,27.0,-100.00,WNW,295,15.0,23.0,99,0.01,,,-99.99,,2013-03-05 16:21:00,
2013-03-05 10:32:00,27.0,27.0,-100.00,WNW,300,17.0,22.0,99,0.00,,,-99.99,,2013-03-05 16:32:00,
2013-03-05 10:42:00,27.0,27.0,-100.00,WNW,295,20.0,27.0,99,0.00,,,-99.99,,2013-03-05 16:42:00,
2013-03-05 10:51:00,28.0,28.0,-100.00,WNW,295,21.0,26.0,99,0.00,,,-99.99,,2013-03-05 16:51:00,
2013-03-05 11:01:00,27.0,27.0,-100.00,WNW,295,19.0,24.0,99,0.14,,,-99.99,,2013-03-05 17:01:00,
2013-03-05 11:11:00,28.0,28.0,-100.00,WNW,300,16.0,26.0,99,0.01,,,-99.99,,2013-03-05 17:11:00,
2013-03-05 11:21:00,28.0,28.0,-100.00,WNW,300,18.0,26.0,99,0.01,,,-99.99,,2013-03-05 17:21:00,
2013-03-05 11:32:00,28.0,28.0,-100.00,NW,305,16.0,24.0,99,0.13,,,-99.99,,2013-03-05 17:32:00,
2013-03-05 11:42:00,28.0,28.0,-100.00,NW,315,18.0,26.0,99,0.13,,,-99.99,,2013-03-05 17:42:00,
2013-03-05 11:52:00,28.0,28.0,-100.00,NW,305,23.0,26.0,99,0.14,,,-99.99,,2013-03-05 17:52:00,
2013-03-05 12:01:00,28.0,28.0,-100.00,NW,315,21.0,26.0,99,0.14,,,-99.99,,2013-03-05 18:01:00,
2013-03-05 12:11:00,28.0,28.0,-100.00,NW,315,17.0,22.0,99,0.01,,,-99.99,,2013-03-05 18:11:00,
2013-03-05 12:21:00,28.0,28.0,-100.00,WNW,300,15.0,25.0,99,0.14,,,-99.99,,2013-03-05 18:21:00,
2013-03-05 12:32:00,28.0,28.0,-100.00,NW,305,16.0,23.0,99,0.14,,,-99.99,,2013-03-05 18:32:00,
2013-03-05 12:42:00,28.0,28.0,-100.00,WNW,300,16.0,21.0,99,0.14,,,-99.99,,2013-03-05 18:42:00,
2013-03-05 12:52:00,28.0,28.0,-100.00,WNW,295,19.0,23.0,99,0.14,,,-99.99,,2013-03-05 18:52:00,
2013-03-05 13:01:00,28.0,28.0,-100.00,WNW,295,19.0,23.0,99,0.14,,,-99.99,,2013-03-05 19:01:00,
2013-03-05 13:11:00,27.0,27.0,-100.00,WNW,290,17.0,21.0,99,0.14,,,-99.99,,2013-03-05 19:11:00,
2013-03-05 13:21:00,27.0,27.0,-100.00,WNW,290,17.0,24.0,99,0.16,,,-99.99,,2013-03-05 19:21:00,
2013-03-05 13:32:00,28.0,28.0,-100.00,WNW,290,17.0,19.0,99,0.14,,,-99.99,,2013-03-05 19:32:00,
2013-03-05 13:42:00,28.0,28.0,-100.00,WNW,295,16.0,21.0,99,0.14,,,-99.99,,2013-03-05 19:42:00,
2013-03-05 13:51:00,28.0,28.0,-100.00,WNW,300,17.0,21.0,99,0.14,,,-99.99,,2013-03-05 19:51:00,
2013-03-05 14:01:00,28.0,28.0,-100.00,WNW,295,20.0,23.0,99,0.14,,,-99.99,,2013-03-05 20:01:00,
2013-03-05 14:11:00,28.0,28.0,-100.00,NW,305,14.0,22.0,99,0.14,,,-99.99,,2013-03-05 20:11:00,
2013-03-05 14:21:00,29.0,29.0,-100.00,NW,305,17.0,23.0,99,0.17,,,-99.99,,2013-03-05 20:21:00,
2013-03-05 14:32:00,29.0,29.0,-100.00,WNW,300,18.0,24.0,99,0.14,,,-99.99,,2013-03-05 20:32:00,
2013-03-05 14:42:00,29.0,29.0,-100.00,NW,310,17.0,22.0,99,0.16,,,-99.99,,2013-03-05 20:42:00,
2013-03-05 14:52:00,29.0,-99.9,-100.00,NW,305,18.0,21.0,-999,0.14,,,-99.99,,2013-03-05 20:52:00,
2013-03-05 15:02:00,29.0,29.0,-100.00,NW,305,16.0,24.0,99,0.00,,,-99.99,,2013-03-05 21:02:00,
2013-03-05 15:11:00,29.0,29.0,-100.00,NW,310,17.0,24.0,99,0.17,,,-99.99,,2013-03-05 21:11:00,
2013-03-05 15:21:00,29.0,29.0,-100.00,NW,310,17.0,24.0,99,0.17,,,-99.99,,2013-03-05 21:21:00,
2013-03-05 15:32:00,29.0,29.0,-100.00,NW,305,17.0,26.0,99,0.14,,,-99.99,,2013-03-05 21:32:00,
2013-03-05 15:42:00,29.0,29.0,-100.00,NW,310,18.0,25.0,99,0.00,,,-99.99,,2013-03-05 21:42:00,
2013-03-05 15:52:00,30.0,30.0,-100.00,WNW,300,17.0,22.0,99,0.00,,,-99.99,,2013-03-05 21:52:00,
2013-03-05 16:01:00,30.0,30.0,-100.00,NW,305,16.0,22.0,99,0.00,,,-99.99,,2013-03-05 22:01:00,
2013-03-05 16:11:00,30.0,30.0,-100.00,NW,315,17.0,23.0,99,0.00,,,-99.99,,2013-03-05 22:11:00,
2013-03-05 16:21:00,30.0,30.0,-100.00,NW,315,17.0,23.0,99,0.00,,,-99.99,,2013-03-05 22:21:00,
2013-03-05 16:32:00,30.0,30.0,-100.00,NW,320,19.0,24.0,99,0.00,,,-99.99,,2013-03-05 22:32:00,
2013-03-05 16:41:00,30.0,30.0,-100.00,NW,315,17.0,24.0,99,0.00,,,-99.99,,2013-03-05 22:41:00,
2013-03-05 16:52:00,29.0,29.0,-100.00,NW,315,22.0,29.0,99,0.00,,,-99.99,,2013-03-05 22:52:00,
2013-03-05 17:01:00,29.0,29.0,-100.00,NW,315,22.0,29.0,99,0.00,,,-99.99,,2013-03-05 23:01:00,
2013-03-05 17:11:00,29.0,29.0,-100.00,NW,320,22.0,30.0,99,0.00,,,-99.99,,2013-03-05 23:11:00,
2013-03-05 17:21:00,29.0,29.0,-100.00,NW,325,21.0,29.0,99,0.00,,,-99.99,,2013-03-05 23:21:00,
2013-03-05 17:32:00,29.0,29.0,-100.00,NW,325,20.0,25.0,99,0.00,,,-99.99,,2013-03-05 23:32:00,
2013-03-05 17:41:00,29.0,29.0,-100.00,NW,320,21.0,24.0,99,0.00,,,-99.99,,2013-03-05 23:41:00,
2013-03-05 17:53:00,28.0,-99.9,-100.00,NNW,330,21.0,29.0,-999,0.00,,,-99.99,,2013-03-05 23:53:00,
2013-03-05 18:01:00,28.0,28.0,-100.00,NW,325,19.0,26.0,99,0.00,,,-99.99,,2013-03-06 00:01:00,
2013-03-05 18:11:00,28.0,28.0,-100.00,NW,320,21.0,26.0,99,0.00,,,-99.99,,2013-03-06 00:11:00,
2013-03-05 18:21:00,28.0,28.0,-100.00,NW,325,21.0,27.0,99,0.00,,,-99.99,,2013-03-06 00:21:00,
2013-03-05 18:32:00,27.0,-99.9,-100.00,NNW,330,20.0,27.0,-999,0.00,,,-99.99,,2013-03-06 00:32:00,
2013-03-05 18:41:00,27.0,27.0,-100.00,NNW,330,22.0,28.0,99,0.00,,,-99.99,,2013-03-06 00:41:00,
2013-03-05 18:51:00,27.0,27.0,-100.00,NNW,330,23.0,28.0,99,0.00,,,-99.99,,2013-03-06 00:51:00,
2013-03-05 19:02:00,27.0,27.0,-100.00,NNW,330,23.0,28.0,99,0.00,,,-99.99,,2013-03-06 01:02:00,
2013-03-05 19:11:00,27.0,27.0,-100.00,NW,325,20.0,27.0,99,0.00,,,-99.99,,2013-03-06 01:11:00,
2013-03-05 19:21:00,27.0,27.0,-100.00,NW,325,20.0,24.0,99,0.00,,,-99.99,,2013-03-06 01:21:00,
2013-03-05 19:32:00,27.0,27.0,-100.00,NW,325,17.0,26.0,99,0.00,,,-99.99,,2013-03-06 01:32:00,
2013-03-05 19:42:00,27.0,27.0,-100.00,NW,325,20.0,27.0,99,0.00,,,-99.99,,2013-03-06 01:42:00,
2013-03-05 19:51:00,27.0,27.0,-100.00,NW,320,18.0,25.0,99,0.00,,,-99.99,,2013-03-06 01:51:00,
2013-03-05 20:01:00,27.0,27.0,-100.00,NW,315,18.0,24.0,99,0.00,,,-99.99,,2013-03-06 02:01:00,
2013-03-05 20:11:00,27.0,27.0,-100.00,NW,320,19.0,25.0,99,0.00,,,-99.99,,2013-03-06 02:11:00,
2013-03-05 20:21:00,27.0,27.0,-100.00,NW,320,19.0,25.0,99,0.00,,,-99.99,,2013-03-06 02:21:00,
2013-03-05 20:32:00,27.0,27.0,-100.00,NW,315,17.0,21.0,99,0.00,,,-99.99,,2013-03-06 02:32:00,
2013-03-05 20:41:00,27.0,27.0,-100.00,NW,315,17.0,21.0,99,0.00,,,-99.99,,2013-03-06 02:41:00,
2013-03-05 20:52:00,27.0,27.0,-100.00,NW,325,17.0,23.0,99,0.00,,,-99.99,,2013-03-06 02:52:00,
2013-03-05 21:01:00,27.0,27.0,-100.00,NW,325,19.0,23.0,99,0.00,,,-99.99,,2013-03-06 03:01:00,
2013-03-05 21:11:00,27.0,27.0,-100.00,NW,325,19.0,22.0,99,0.00,,,-99.99,,2013-03-06 03:11:00,
2013-03-05 21:22:00,27.0,27.0,-100.00,NW,325,19.0,22.0,99,0.00,,,-99.99,,2013-03-06 03:22:00,
2013-03-05 21:32:00,27.0,27.0,-100.00,NNW,330,18.0,23.0,99,0.00,,,-99.99,,2013-03-06 03:32:00,
2013-03-05 21:41:00,27.0,27.0,-100.00,NNW,330,18.0,23.0,99,0.00,,,-99.99,,2013-03-06 03:41:00,
2013-03-05 21:52:00,26.0,26.0,-100.00,NW,325,17.0,25.0,99,0.00,,,-99.99,,2013-03-06 03:52:00,
2013-03-05 22:02:00,26.0,26.0,-100.00,NW,325,17.0,25.0,99,0.00,,,-99.99,,2013-03-06 04:02:00,
2013-03-05 22:11:00,26.0,26.0,-100.00,NW,325,17.0,25.0,99,0.00,,,-99.99,,2013-03-06 04:11:00,
2013-03-05 22:21:00,26.0,26.0,-100.00,NW,325,17.0,25.0,99,0.00,,,-99.99,,2013-03-06 04:21:00,
2013-03-05 22:32:00,26.0,26.0,-100.00,NW,325,16.0,21.0,99,0.01,,,-99.99,,2013-03-06 04:32:00,
2013-03-05 22:41:00,26.0,26.0,-100.00,NW,320,16.0,23.0,99,0.01,,,-99.99,,2013-03-06 04:41:00,
2013-03-05 22:52:00,26.0,26.0,-100.00,NW,320,17.0,22.0,99,0.01,,,-99.99,,2013-03-06 04:52:00,
2013-03-05 23:02:00,26.0,26.0,-100.00,NW,320,17.0,24.0,99,0.00,,,-99.99,,2013-03-06 05:02:00,
2013-03-05 23:11:00,26.0,26.0,-100.00,NW,325,20.0,23.0,99,0.00,,,-99.99,,2013-03-06 05:11:00,
2013-03-05 23:22:00,26.0,26.0,-100.00,NW,325,20.0,23.0,99,0.00,,,-99.99,,2013-03-06 05:22:00,
2013-03-05 23:32:00,26.0,26.0,-100.00,NNW,330,17.0,22.0,99,0.00,,,-99.99,,2013-03-06 05:32:00,
2013-03-05 23:42:00,25.0,25.0,-100.00,NNW,330,14.0,21.0,99,0.00,,,-99.99,,2013-03-06 05:42:00,
2013-03-05 23:52:00,24.0,24.0,-100.00,NNW,330,13.0,17.0,99,0.00,,,-99.99,,2013-03-06 05:52:00,